Boscobel, WI

9:55 AM CST on December 16, 2017 (GMT -0600)
Boscobel

Weather History for KOVS - March, 2013

Change the Weather History Date:

Monday, March 11, 2013

  Actual Average (KPDC) Record (KPDC)
Temperature  
Mean Temperature 32 °F -  
Max Temperature 35 °F 44 °F 66 °F (1990)
Min Temperature 30 °F 25 °F 0 °F (1979)
Degree Days  
Heating Degree Days 32    
Moisture  
Dew Point 28 °F    
Average Humidity 82    
Maximum Humidity 92    
Minimum Humidity 75    
Precipitation  
Precipitation 0.00 in - - ()
Sea Level Pressure  
Sea Level Pressure 29.70 in    
Wind  
Wind Speed 6 mph (NW)    
Max Wind Speed 12 mph    
Max Gust Speed 16 mph    
Visibility 9 miles    
Events Snow    
Averages and records for this station are not official NWS values.
T = Trace of Precipitation, MM = Missing Value Source: NWS Daily Summary

Daily Weather History Graph

Daily Weather History Graph

Search for Another Location

Airport or City:

Trip Planner

Search our weather history database for the weather conditions in past years. The results will help you decide how hot, cold, wet, or windy it might be!

Date:

Astronomy

Mar. 11, 2013 Rise Set
Actual Time 7:21 AM CDT 7:04 PM CDT
Civil Twilight 6:52 AM CDT 7:32 PM CDT
Nautical Twilight 6:20 AM CDT 8:05 PM CDT
Astronomical Twilight 5:46 AM CDT 8:39 PM CDT
Moon 6:54 AM CDT (3/11) 7:18 PM CDT (3/11)
Length of Visible Light 12h 39m
Length of Day
11h 43m
Waning Crescent, 0% of the Moon is Illuminated
Mar 11
Waning Crescent
Mar 11
New
Mar 19
First Quarter
Mar 27
Full
Apr 2
Last Quarter

Hourly Weather History & Observations

Time (CDT) Temp. Windchill Dew Point Humidity Pressure Visibility Wind Dir Wind Speed Gust Speed Precip Events Conditions
12:53 AM 35.1 °F 32.2 °F 33.1 °F 92% 29.69 in 10.0 mi NNE 3.5 mph - 0.00 in   Overcast
1:53 AM 35.1 °F 31.0 °F 33.1 °F 92% 29.68 in 10.0 mi North 4.6 mph - N/A   Overcast
2:53 AM 34.0 °F 28.8 °F 32.0 °F 92% 29.67 in 7.0 mi North 5.8 mph - N/A   Overcast
3:53 AM 34.0 °F 28.8 °F 32.0 °F 92% 29.66 in 10.0 mi North 5.8 mph - N/A   Overcast
4:53 AM 34.0 °F 31.0 °F 30.9 °F 89% 29.65 in 10.0 mi Variable 3.5 mph - N/A   Overcast
5:53 AM 33.1 °F 25.5 °F 30.0 °F 89% 29.66 in 7.0 mi North 9.2 mph - N/A   Overcast
7:01 AM 33.8 °F 29.6 °F 28.4 °F 81% 29.65 in 10.0 mi North 4.6 mph - N/A   Overcast
7:41 AM 33.8 °F 30.8 °F 28.4 °F 81% 29.66 in 10.0 mi NNW 3.5 mph - N/A   Overcast
7:53 AM 33.1 °F 27.7 °F 28.0 °F 82% 29.68 in 10.0 mi NNW 5.8 mph - N/A   Overcast
8:00 AM 33.8 °F 29.6 °F 28.4 °F 81% 29.66 in 10.0 mi NNW 4.6 mph - N/A   Overcast
8:53 AM 33.1 °F 26.9 °F 28.9 °F 85% 29.67 in 10.0 mi North 6.9 mph - N/A   Overcast
9:53 AM 34.0 °F 26.0 °F 28.0 °F 79% 29.66 in 10.0 mi North 10.4 mph - N/A   Overcast
10:53 AM 34.0 °F 27.2 °F 28.0 °F 79% 29.65 in 10.0 mi NW 8.1 mph - N/A   Overcast
11:53 AM 33.1 °F 26.9 °F 28.0 °F 82% 29.66 in 10.0 mi NNW 6.9 mph - N/A   Overcast
12:53 PM 34.0 °F 28.0 °F 28.0 °F 79% 29.66 in 10.0 mi NNW 6.9 mph - N/A   Overcast
1:53 PM 33.1 °F 24.9 °F 28.0 °F 82% 29.65 in 10.0 mi NW 10.4 mph - N/A   Overcast
2:53 PM 33.1 °F 25.5 °F 28.0 °F 82% 29.65 in 10.0 mi NW 9.2 mph - N/A   Overcast
3:10 PM 33.8 °F 26.4 °F 28.4 °F 81% 29.63 in 8.0 mi WNW 9.2 mph - N/A   Overcast
3:53 PM 34.0 °F 29.8 °F 28.0 °F 79% 29.68 in 10.0 mi WNW 4.6 mph - N/A   Overcast
4:53 PM 34.0 °F 26.6 °F 28.0 °F 79% 29.68 in 10.0 mi NW 9.2 mph - 0.00 in   Overcast
5:09 PM 33.8 °F 28.6 °F 28.4 °F 81% 29.66 in 1.8 mi NW 5.8 mph 16.1 mph 0.00 in Snow Light Snow
5:14 PM 33.8 °F 29.6 °F 28.4 °F 81% 29.66 in 2.0 mi WNW 4.6 mph - 0.00 in Snow Light Snow
5:22 PM 33.8 °F 27.0 °F 28.4 °F 81% 29.66 in 3.0 mi NW 8.1 mph - 0.00 in Snow Light Snow
5:53 PM 34.0 °F 28.0 °F 28.0 °F 79% 29.71 in 10.0 mi West 6.9 mph - 0.00 in   Overcast
6:53 PM 33.1 °F 24.4 °F 27.0 °F 78% 29.74 in 10.0 mi West 11.5 mph 16.1 mph N/A   Overcast
7:28 PM 32.0 °F 26.4 °F 26.6 °F 80% 29.73 in 10.0 mi West 5.8 mph - N/A   Overcast
7:53 PM 32.0 °F 24.2 °F 26.1 °F 79% 29.77 in 10.0 mi WNW 9.2 mph - N/A   Overcast
8:53 PM 32.0 °F 23.0 °F 26.1 °F 79% 29.79 in 10.0 mi West 11.5 mph - N/A   Overcast
9:48 PM 32.0 °F 25.6 °F 26.6 °F 80% 29.79 in 10.0 mi WNW 6.9 mph - N/A   Overcast
9:53 PM 32.0 °F 24.8 °F 26.1 °F 79% 29.82 in 10.0 mi West 8.1 mph - N/A   Overcast
10:53 PM 32.0 °F 23.6 °F 25.0 °F 75% 29.83 in 10.0 mi WNW 10.4 mph - N/A   Overcast
11:26 PM 30.2 °F 22.6 °F 24.8 °F 80% 29.82 in 10.0 mi WNW 8.1 mph - N/A   Overcast
11:35 PM 30.2 °F 21.9 °F 24.8 °F 80% 29.82 in 10.0 mi West 9.2 mph - N/A   Overcast
11:53 PM 30.9 °F 25.2 °F 24.1 °F 76% 29.84 in 10.0 mi West 5.8 mph - N/A   Overcast